User: anonymous   Login
Location: Unspecified
(0.0000°N, 0.0000°E)
Time: 13:47:23
(UTC+00:00)
Language:

STARS - Orbit

View from above orbital plane
View from above orbital plane
View from above satellite
View from above satellite

Ground track
Ground track

The orbit data is extracted from the following two-line orbital elements,

1 33498U 09002G   17111.97033553 +.00000531 +00000-0 +80238-4 0  9998
2 33498 098.3190 284.0674 0011452 164.1460 312.5863 14.78535988443169
Epoch (UTC): 21 April 2017 23:17:16
Eccentricity: 0.0011452
inclination: 98.3190°
perigee height: 626 km
apogee height: 642 km
right ascension of ascending node: 284.0674°
argument of perigee: 164.1460°
revolutions per day: 14.78535988
mean anomaly at epoch: 312.5863°
orbit number at epoch: 44316

The dashed part of the orbit path shows where the satellite is in the earth's shadow,  

DLR